Volver al catálogo

TOM-1

ActivoCienciaSSO
NORAD 69872·PAYLOAD·🇹🇼 Taiwan

Lanzado Jul 7, 2026 desde Vandenberg Space Force Base

Loading…

Próximos Pases (próximas 24 horas)

TLE

ActualizadoSource: Space-Track

Época: Sep 13, 2026, 16:07 UTC

1 69872U 26156D   26256.67166233  .00000983  00000-0  10553-3 0  9994
2 69872  97.7435 155.8593 0002183 228.7435 131.3595 14.90811331 10188

Sigue TOM-1 en tiempo real con AllMySat

Download on the App Store